Miscellaneous Local Product
Issued by NWS Hastings, NE

Home | Current Version | Previous Version | Text Only | Print | Product List | Glossary On
Versions: 1 2 3 4 5 6 7 8 9 10 11 12 13 14 15 16 17 18 19 20 21 22 23 24 25 26 27 28 29 30 31 32 33 34 35 36 37 38 39 40 41 42 43 44 45 46 47 48 49 50
000
AXUS43 KGID 281802
MISGRI

GID CWA HOURLY WEATHER ROUNDUP
NATIONAL WEATHER SERVICE HASTINGS NE
1200 PM CST SAT FEB 28 2015

NOTE: "FAIR" INDICATES FEW OR NO CLOUDS BELOW 12,000 FEET WITH NO
SIGNIFICANT WEATHER AND/OR OBSTRUCTIONS TO VISIBILITY.

...SOUTH CENTRAL NEBRASKA...

CITY           SKY/WX    TMP DP  RH WIND       PRES   REMARKS
GRAND ISLAND   PTSUNNY   22  10  60 S15       30.34F WCI   9
HASTINGS       LGT SNOW  18  12  77 S10       30.32F WCI   6
KEARNEY        PTSUNNY   21  10  63 S13       30.29F WCI   9
ORD            CLOUDY    23   8  52 S13G24    30.27F WCI  11
YORK           LGT SNOW  18  14  86 S12       30.38F WCI   5
AURORA         CLOUDY    19  12  73 S10       30.34F HAZE    WCI   8
LEXINGTON      MOSUNNY   22  11  60 SW12G17   30.25F WCI  11
HOLDREGE       LGT SNOW  17  11  77 S12       30.28F WCI   5
HEBRON         LGT SNOW  19  13  78 S8        30.39F WCI   9

...NEBRASKA PANHANDLE...

CITY           SKY/WX    TMP DP  RH WIND       PRES   REMARKS
CHADRON        PTSUNNY   23  12  62 E5        30.12S WCI  17
ALLIANCE       SUNNY     24   9  52 NE7       30.07S WCI  16
SCOTTSBLUFF    SUNNY     25  11  55 CALM      30.07F
SIDNEY         SUNNY     19  10  68 CALM      30.05F

...WESTERN AND NORTH CENTRAL NEBRASKA...

CITY           SKY/WX    TMP DP  RH WIND       PRES   REMARKS
VALENTINE      MOSUNNY   27   9  46 SW15      30.16S WCI  15
AINSWORTH      PTSUNNY   23  10  56 SW17G23   30.18S WCI   9
ONEILL         CLOUDY    24  10  56 S18       30.26S WCI  10
BROKEN BOW     MOSUNNY   24  10  55 S18G29    30.22F WCI  10
IMPERIAL         N/A     21   8  57 S7        30.14F WCI  12
NORTH PLATTE   CLOUDY    24  10  55 S13       30.19F WCI  12
MCCOOK         CLOUDY    24  10  55 S8G18     30.22F WCI  15

...EASTERN NEBRASKA...

CITY           SKY/WX    TMP DP  RH WIND       PRES   REMARKS
NORFOLK        CLOUDY    22  10  60 S17       30.35F WCI   8
SO SIOUX CITY  PTSUNNY   23  12  62 S18       30.42F WCI   9
COLUMBUS       CLOUDY    23   5  46 S14G20    30.39F WCI  11
ALBION         CLOUDY    23   9  55 SW14G21   30.32F WCI  10
OMAHA EPPLEY   PTSUNNY   22   9  57 S16       30.48S WCI   8
OFFUTT AFB     FLURRIES  21   9  58 SE12      30.46F WCI   9
MILLARD        PTSUNNY   22   9  57 S13       30.47S WCI   9
LINCOLN        LGT SNOW  20  15  81 S9        30.44F VSB 1   WCI   9
NEBRASKA CITY  LGT SNOW  20  13  72 S10       30.45F WCI   9
BEATRICE       LGT SNOW  19  14  79 S7        30.42F WCI  10
FALLS CITY     LGT SNOW  21  15  78 S8        30.47F VSB 1   WCI  11

...NORTHERN KANSAS...

CITY           SKY/WX    TMP DP  RH WIND       PRES   REMARKS
GOODLAND       LGT SNOW  16  10  77 S10       30.12F WCI   4
HILL CITY      LGT SNOW  18  12  77 S10       30.29S WCI   6
NORTON         CLOUDY    18  10  73 SE9       30.26F WCI   6
PHILLIPSBURG   LGT SNOW  21  16  79 SE9       30.32F WCI  11
SMITH CENTER   LGT SNOW  18  12  79 SE12      30.34F WCI   5
BELOIT         CLOUDY    19  14  79 SE7       30.38F WCI  10
HAYS           CLOUDY    16   5  62 S13       30.31F WCI   2
RUSSELL        LGT SNOW  17  12  80 SE12      30.32F WCI   4
CONCORDIA      LGT SNOW  19  15  84 S9        30.39F FOG     WCI   8
SALINA         LGT SNOW  20  15  81 SE6       30.42S WCI  12
TOPEKA         LGT SNOW  21  16  81 SE9       30.48F VSB 1   WCI  11



USA.gov is the U.S. government's official web portal to all federal, state and local government web resources and services.